TimeMDT,TemperatureF,Dew PointF,Humidity,Sea Level PressureIn,VisibilityMPH,Wind Direction,Wind SpeedMPH,Gust SpeedMPH,PrecipitationIn,Events,Conditions,WindDirDegrees,DateUTC
12:53 AM,46.0,36.0,68,30.22,10.0,SE,8.1,-,N/A,,Clear,140,2011-10-23 06:53:00
1:53 AM,46.0,33.1,61,30.22,10.0,SE,8.1,-,N/A,,Clear,140,2011-10-23 07:53:00
2:53 AM,46.0,34.0,63,30.22,10.0,SSE,9.2,-,N/A,,Clear,150,2011-10-23 08:53:00
3:53 AM,44.1,34.0,68,30.21,10.0,SSE,6.9,-,N/A,,Clear,150,2011-10-23 09:53:00
4:53 AM,45.0,35.1,68,30.20,10.0,SSE,9.2,-,N/A,,Clear,150,2011-10-23 10:53:00
5:53 AM,43.0,34.0,71,30.21,10.0,SSE,8.1,-,N/A,,Clear,150,2011-10-23 11:53:00
6:53 AM,43.0,35.1,74,30.22,10.0,SE,8.1,-,N/A,,Clear,140,2011-10-23 12:53:00
7:53 AM,43.0,35.1,74,30.22,10.0,SE,8.1,-,N/A,,Clear,130,2011-10-23 13:53:00
8:53 AM,46.9,37.0,68,30.24,10.0,SE,8.1,-,N/A,,Clear,140,2011-10-23 14:53:00
9:53 AM,54.0,37.0,53,30.23,10.0,SE,9.2,-,N/A,,Clear,140,2011-10-23 15:53:00
12:53 PM,64.9,36.0,34,30.18,10.0,SE,6.9,-,N/A,,Partly Cloudy,130,2011-10-23 18:53:00
1:53 PM,68.0,34.0,28,30.15,10.0,Calm,Calm,-,N/A,,Partly Cloudy,0,2011-10-23 19:53:00
2:53 PM,71.1,33.1,25,30.10,10.0,ENE,3.5,-,N/A,,Partly Cloudy,70,2011-10-23 20:53:00
3:53 PM,71.1,37.0,29,30.09,10.0,Variable,4.6,-,N/A,,Scattered Clouds,0,2011-10-23 21:53:00
4:53 PM,70.0,36.0,29,30.06,10.0,North,6.9,-,N/A,,Scattered Clouds,10,2011-10-23 22:53:00
5:53 PM,66.0,35.1,32,30.07,10.0,North,8.1,-,N/A,,Scattered Clouds,360,2011-10-23 23:53:00
6:53 PM,55.9,42.1,60,30.08,10.0,North,8.1,-,N/A,,Scattered Clouds,10,2011-10-24 00:53:00
7:53 PM,55.9,42.1,60,30.08,10.0,SW,5.8,-,N/A,,Partly Cloudy,220,2011-10-24 01:53:00
8:53 PM,54.0,37.9,55,30.07,10.0,Calm,Calm,-,N/A,,Partly Cloudy,0,2011-10-24 02:53:00
9:53 PM,55.0,36.0,49,30.06,10.0,SSE,6.9,-,N/A,,Clear,150,2011-10-24 03:53:00
10:53 PM,52.0,36.0,54,30.05,10.0,SSE,8.1,-,N/A,,Clear,150,2011-10-24 04:53:00
11:53 PM,50.0,36.0,59,30.02,10.0,SSE,8.1,-,N/A,,Clear,160,2011-10-24 05:53:00